EA3CTN-13 Weather Reports


Display with metric or nautical units.
time (UTC)temp
F
wind
direction
speed
MPH
gust
MPH
rain 1hr
in
rain 24hr
in
rain mn
in
humidity
%
barometer
mb
20260504214118 65 0.0 0.0 0.00 0.00 0.00 58 1012.3
20260504213318 65 0.0 0.0 0.00 0.00 0.00 58 1012.4
20260504212519 65 0.0 0.0 0.00 0.00 0.00 57 1012.3
20260504211719 65 0.0 0.0 0.00 0.00 0.00 57 1012.4
20260504210918 65 0.0 0.0 0.00 0.00 0.00 57 1012.3
20260504210119 65 0.0 0.0 0.00 0.00 0.00 58 1012.5
20260504205318 65 0.0 0.0 0.00 0.00 0.00 58 1012.4
20260504204518 65 0.0 0.0 0.00 0.00 0.00 58 1012.5
20260504203720 65 0.0 0.0 0.00 0.00 0.00 58 1012.6
20260504202921 65 0.0 0.0 0.00 0.00 0.00 58 1012.3
20260504202118 65 0.0 0.0 0.00 0.00 0.00 57 1012.8
20260504201318 65 0.0 0.0 0.00 0.00 0.00 57 1012.8
20260504200518 66 0.0 0.0 0.00 0.00 0.00 60 1012.8
20260504195718 67 0.0 0.0 0.00 0.00 0.00 63 1012.6
20260504194918 67 0.0 0.0 0.00 0.00 0.00 63 1012.4
20260504194120 67 0.0 0.0 0.00 0.00 0.00 62 1012.3
20260504193319 67 0.0 0.0 0.00 0.00 0.00 63 1012.1
20260504192520 67 0.0 0.0 0.00 0.00 0.00 63 1012.0
20260504191718 67 0.0 0.0 0.00 0.00 0.00 63 1011.9
20260504190918 67 0.0 0.0 0.00 0.00 0.00 63 1011.9
20260504190118 67 0.0 0.0 0.00 0.00 0.00 63 1011.7
20260504185318 68 0.0 0.0 0.00 0.00 0.00 64 1011.7
20260504184518 68 0.0 0.0 0.00 0.00 0.00 63 1011.7
20260504183718 68 0.0 0.0 0.00 0.00 0.00 63 1011.6
20260504182918 68 0.0 0.0 0.00 0.00 0.00 63 1011.5
20260504182118 69 0.0 0.0 0.00 0.00 0.00 62 1011.4
20260504181318 69 0.0 0.0 0.00 0.00 0.00 61 1011.2
20260504180518 69 0.0 0.0 0.00 0.00 0.00 61 1011.1
20260504175718 70 0.0 0.0 0.00 0.00 0.00 60 1011.1
20260504174918 70 0.0 0.0 0.00 0.00 0.00 60 1011.2
20260504174118 70 0.0 0.0 0.00 0.00 0.00 60 1011.3
20260504173318 71 0.0 0.0 0.00 0.00 0.00 58 1011.3
20260504172518 71 0.0 0.0 0.00 0.00 0.00 58 1011.2
20260504171718 71 0.0 0.0 0.00 0.00 0.00 57 1011.1
20260504170918 71 0.0 0.0 0.00 0.00 0.00 59 1011.2
20260504170118 70 0.0 0.0 0.00 0.00 0.00 59 1011.4
20260504150918 69 0.0 0.0 0.00 0.00 0.00 61 1011.8
20260504150118 69 0.0 0.0 0.00 0.00 0.00 61 1011.8
20260504141318 69 0.0 0.0 0.00 0.00 0.00 61 1012.1
20260504140518 70 0.0 0.0 0.00 0.00 0.00 60 1012.3
20260504130118 71 0.0 0.0 0.00 0.00 0.00 58 1012.3
20260504110118 71 0.0 0.0 0.00 0.00 0.00 55 1012.6
20260504100518 71 0.0 0.0 0.00 0.00 0.00 56 1012.9
20260504090118 70 0.0 0.0 0.00 0.00 0.00 55 1012.8
20260503222117 65 0.0 0.0 0.00 0.00 0.00 67 1015.2
20260503221320 65 0.0 0.0 0.00 0.00 0.00 67 1015.2
20260503220517 65 0.0 0.0 0.00 0.00 0.00 67 1015.2
20260503215717 65 0.0 0.0 0.00 0.00 0.00 67 1015.2
20260503214917 66 0.0 0.0 0.00 0.00 0.00 66 1015.1